�������l�o���
Date,Time,MP-1(��Sv/h),MP-2(��Sv/h),MP-3(��Sv/h),MP-4(��Sv/h),MP-5(��Sv/h),MP-6(��Sv/h),MP-7(��Sv/h),MP-8(��Sv/h),����,����(m/s),���J
2018/06/07,00:00,0.875,1.294,0.895,1.621,1.144,0.481,0.846,0.805,�k�k��,0.8,��
2018/06/07,00:10,0.875,1.293,0.893,1.624,1.145,0.482,0.843,0.803,-,CALM,��
2018/06/07,00:20,0.876,1.292,0.894,1.622,1.145,0.481,0.845,0.803,�쓌,0.8,��
2018/06/07,00:30,0.876,1.293,0.894,1.624,1.144,0.480,0.846,0.803,�쓌,0.8,��
2018/06/07,00:40,0.877,1.291,0.892,1.623,1.145,0.481,0.844,0.803,-,CALM,��
2018/06/07,00:50,0.877,1.293,0.894,1.623,1.144,0.481,0.844,0.803,-,CALM,��
2018/06/07,01:00,0.875,1.292,0.893,1.622,1.144,0.480,0.844,0.802,�k,0.6,��
2018/06/07,01:10,0.878,1.292,0.895,1.621,1.144,0.481,0.843,0.804,�k,1.7,��
2018/06/07,01:20,0.875,1.291,0.893,1.623,1.145,0.481,0.844,0.804,�k��,0.9,��
2018/06/07,01:30,0.876,1.292,0.893,1.622,1.145,0.481,0.843,0.803,�k�k��,0.6,��
2018/06/07,01:40,0.874,1.294,0.893,1.622,1.146,0.482,0.845,0.803,�k�k��,1.2,��
2018/06/07,01:50,0.876,1.292,0.895,1.623,1.147,0.481,0.845,0.804,�k,0.9,��
2018/06/07,02:00,0.874,1.294,0.895,1.621,1.146,0.481,0.845,0.804,�k,0.9,��
2018/06/07,02:10,0.876,1.293,0.896,1.623,1.145,0.481,0.845,0.803,�k,2.0,��
2018/06/07,02:20,0.876,1.293,0.894,1.623,1.146,0.481,0.846,0.805,�k�k��,2.3,��
2018/06/07,02:30,0.875,1.293,0.893,1.623,1.145,0.481,0.845,0.803,�k�k��,2.3,��
2018/06/07,02:40,0.875,1.292,0.895,1.625,1.145,0.480,0.845,0.803,�k�k��,1.5,��
2018/06/07,02:50,0.877,1.294,0.894,1.622,1.144,0.481,0.844,0.803,�k,2.2,��
2018/06/07,03:00,0.876,1.295,0.893,1.623,1.143,0.479,0.844,0.803,�k,1.7,��
2018/06/07,03:10,0.875,1.291,0.892,1.621,1.140,0.482,0.845,0.804,�k�k��,2.8,��
2018/06/07,03:20,0.874,1.292,0.894,1.621,1.146,0.480,0.845,0.803,�k�k��,3.0,��
2018/06/07,03:30,0.874,1.291,0.893,1.622,1.146,0.481,0.844,0.803,�k�k��,1.9,��
2018/06/07,03:40,0.876,1.289,0.895,1.622,1.145,0.482,0.843,0.802,�k�k��,2.0,��
2018/06/07,03:50,0.874,1.291,0.892,1.623,1.145,0.482,0.845,0.804,�k�k��,2.0,��
2018/06/07,04:00,0.877,1.289,0.894,1.622,1.145,0.482,0.847,0.804,�k�k��,0.9,��
2018/06/07,04:10,0.876,1.293,0.893,1.622,1.145,0.483,0.845,0.803,�k,1.2,��
2018/06/07,04:20,0.874,1.293,0.893,1.625,1.144,0.483,0.845,0.803,�k,1.7,��
2018/06/07,04:30,0.876,1.295,0.896,1.624,1.145,0.482,0.845,0.804,�k�k��,1.2,��
2018/06/07,04:40,0.877,1.293,0.894,1.623,1.145,0.482,0.847,0.805,�k�k��,1.2,��
2018/06/07,04:50,0.875,1.292,0.894,1.624,1.146,0.481,0.846,0.802,-,CALM,��
2018/06/07,05:00,0.874,1.291,0.893,1.620,1.143,0.483,0.846,0.803,�k��,1.2,�L
2018/06/07,05:10,0.877,1.291,0.895,1.623,1.148,0.483,0.845,0.804,�k��,1.5,��
2018/06/07,05:20,0.875,1.294,0.896,1.624,1.146,0.482,0.845,0.804,�k��,0.6,��
2018/06/07,05:30,0.875,1.296,0.893,1.622,1.146,0.483,0.845,0.805,�k��,0.8,��
2018/06/07,05:40,0.878,1.294,0.892,1.622,1.145,0.483,0.845,0.804,�쐼,0.6,��
2018/06/07,05:50,0.877,1.294,0.895,1.622,1.146,0.482,0.844,0.804,�쐼,1.7,��
2018/06/07,06:00,0.877,1.292,0.895,1.625,1.143,0.482,0.848,0.804,�쐼,2.0,��
2018/06/07,06:10,0.877,1.293,0.894,1.625,1.145,0.482,0.848,0.803,��쐼,0.9,��
2018/06/07,06:20,0.877,1.295,0.895,1.626,1.147,0.482,0.848,0.804,���쐼,0.9,��
2018/06/07,06:30,0.877,1.293,0.895,1.621,1.144,0.482,0.845,0.806,���k��,0.6,��
2018/06/07,06:40,0.878,1.295,0.895,1.623,1.144,0.483,0.846,0.804,�k�k��,0.9,��
2018/06/07,06:50,0.877,1.292,0.895,1.623,1.144,0.481,0.845,0.804,�쐼,0.9,��
2018/06/07,07:00,0.875,1.291,0.896,1.623,1.145,0.481,0.843,0.804,�쐼,0.6,��
2018/06/07,07:10,0.873,1.290,0.893,1.621,1.146,0.480,0.843,0.806,-,CALM,��
2018/06/07,07:20,0.875,1.290,0.895,1.622,1.146,0.480,0.845,0.806,��,0.9,��
2018/06/07,07:30,0.873,1.291,0.894,1.623,1.145,0.480,0.844,0.802,��쓌,1.1,��
2018/06/07,07:40,0.874,1.290,0.890,1.623,1.145,0.479,0.844,0.804,�쓌,1.5,��
2018/06/07,07:50,0.872,1.288,0.893,1.621,1.147,0.480,0.844,0.802,�쓌,1.5,��
2018/06/07,08:00,0.871,1.290,0.893,1.624,1.145,0.480,0.843,0.800,��쓌,1.5,��
2018/06/07,08:10,0.871,1.287,0.892,1.624,1.148,0.481,0.844,0.801,���쓌,1.7,��
2018/06/07,08:20,0.872,1.291,0.894,1.624,1.146,0.479,0.843,0.802,���쓌,1.7,��
2018/06/07,08:30,0.870,1.291,0.894,1.624,1.146,0.479,0.844,0.802,���k��,1.7,��
2018/06/07,08:40,0.871,1.290,0.895,1.626,1.145,0.479,0.844,0.802,��,2.3,��
2018/06/07,08:50,0.871,1.290,0.892,1.627,1.144,0.480,0.845,0.803,��,2.3,��
2018/06/07,09:00,0.870,1.292,0.894,1.625,1.145,0.482,0.845,0.802,���쓌,1.9,��
2018/06/07,09:10,0.870,1.290,0.893,1.626,1.145,0.480,0.844,0.801,���쓌,2.0,��
2018/06/07,09:20,0.873,1.291,0.896,1.626,1.145,0.481,0.842,0.801,�쓌,1.5,��
2018/06/07,09:30,0.873,1.290,0.893,1.628,1.146,0.481,0.844,0.800,�쓌,2.5,��
2018/06/07,09:40,0.874,1.292,0.893,1.627,1.145,0.481,0.844,0.803,�쓌,2.5,��
2018/06/07,09:50,0.877,1.290,0.892,1.626,1.146,0.480,0.843,0.800,�쓌,2.0,��
2018/06/07,10:00,0.876,1.292,0.891,1.622,1.145,0.480,0.845,0.800,�쓌,2.0,��
2018/06/07,10:10,0.876,1.291,0.893,1.626,1.147,0.481,0.846,0.801,�쓌,2.9,��
2018/06/07,10:20,0.877,1.296,0.892,1.626,1.147,0.482,0.846,0.800,��쓌,3.3,��
2018/06/07,10:30,0.876,1.292,0.894,1.625,1.148,0.481,0.844,0.801,��쓌,2.3,��
2018/06/07,10:40,0.875,1.291,0.894,1.629,1.148,0.480,0.846,0.801,�쓌,3.3,��
2018/06/07,10:50,0.877,1.294,0.894,1.628,1.147,0.482,0.845,0.802,�쓌,3.5,��
2018/06/07,11:00,0.875,1.294,0.893,1.625,1.149,0.482,0.845,0.802,�쓌,3.4,��
2018/06/07,11:10,0.878,1.294,0.894,1.627,1.149,0.481,0.845,0.802,�쓌,3.0,��
2018/06/07,11:20,0.878,1.295,0.896,1.623,1.149,0.482,0.845,0.801,�쓌,3.2,��
2018/06/07,11:30,0.878,1.296,0.895,1.624,1.148,0.483,0.845,0.801,�쓌,3.4,��
2018/06/07,11:40,0.878,1.295,0.896,1.624,1.151,0.482,0.846,0.801,��쓌,3.7,��
2018/06/07,11:50,0.877,1.296,0.894,1.623,1.151,0.484,0.847,0.802,�쓌,3.1,��
2018/06/07,12:00,0.875,1.295,0.897,1.625,1.150,0.483,0.847,0.803,�쓌,3.8,��
2018/06/07,12:10,0.875,1.295,0.897,1.624,1.151,0.483,0.847,0.803,�쓌,4.6,��
2018/06/07,12:20,0.873,1.298,0.897,1.627,1.151,0.484,0.847,0.801,��쓌,4.7,��
2018/06/07,12:30,0.876,1.296,0.897,1.625,1.150,0.483,0.846,0.802,�쓌,4.0,��
2018/06/07,12:40,0.875,1.297,0.896,1.625,1.151,0.483,0.846,0.803,�쓌,3.6,��
2018/06/07,12:50,0.875,1.296,0.898,1.625,1.151,0.485,0.847,0.803,��쓌,4.3,��
2018/06/07,13:00,0.878,1.296,0.897,1.628,1.152,0.483,0.847,0.802,��쓌,5.1,��
2018/06/07,13:10,0.877,1.297,0.897,1.628,1.153,0.484,0.848,0.805,�쓌,5.1,��
2018/06/07,13:20,0.876,1.298,0.896,1.630,1.152,0.483,0.845,0.803,�쓌,6.1,��
2018/06/07,13:30,0.877,1.296,0.899,1.628,1.155,0.483,0.847,0.803,��쓌,5.5,��
2018/06/07,13:40,0.881,1.296,0.897,1.630,1.153,0.485,0.847,0.803,��쓌,5.0,��
2018/06/07,13:50,0.881,1.299,0.897,1.630,1.154,0.484,0.846,0.803,��쓌,4.4,��
2018/06/07,14:00,0.881,1.299,0.897,1.625,1.151,0.483,0.846,0.803,��쓌,5.3,��
2018/06/07,14:10,0.882,1.303,0.899,1.629,1.151,0.484,0.846,0.806,��쓌,5.7,��
2018/06/07,14:20,0.883,1.300,0.897,1.629,1.155,0.484,0.847,0.805,�쓌,5.9,��
2018/06/07,14:30,0.882,1.300,0.899,1.630,1.152,0.485,0.847,0.803,�쓌,6.1,��
2018/06/07,14:40,0.883,1.299,0.898,1.631,1.152,0.484,0.848,0.803,��쓌,5.3,��
2018/06/07,14:50,0.882,1.303,0.900,1.631,1.154,0.483,0.846,0.803,��쓌,5.7,��
2018/06/07,15:00,0.882,1.301,0.898,1.636,1.155,0.484,0.847,0.804,��쓌,6.2,��
2018/06/07,15:10,0.884,1.300,0.898,1.631,1.155,0.483,0.848,0.802,��쓌,5.1,��
2018/06/07,15:20,0.885,1.301,0.898,1.633,1.154,0.484,0.847,0.805,��쓌,4.8,��
2018/06/07,15:30,0.883,1.299,0.897,1.635,1.156,0.484,0.848,0.804,��쓌,3.0,��
2018/06/07,15:40,0.883,1.302,0.897,1.631,1.156,0.484,0.848,0.805,��쓌,5.0,��
2018/06/07,15:50,0.883,1.300,0.898,1.632,1.155,0.484,0.845,0.803,��쓌,7.5,��
2018/06/07,16:00,0.882,1.300,0.901,1.632,1.156,0.485,0.847,0.805,��,6.3,��
2018/06/07,16:10,0.883,1.299,0.899,1.633,1.156,0.484,0.848,0.804,��,6.8,��
2018/06/07,16:20,0.883,1.301,0.899,1.633,1.157,0.483,0.847,0.804,��,5.8,��
2018/06/07,16:30,0.885,1.301,0.900,1.632,1.157,0.484,0.848,0.804,��,6.2,��
2018/06/07,16:40,0.884,1.301,0.899,1.634,1.156,0.485,0.847,0.804,��,6.1,��
2018/06/07,16:50,0.883,1.301,0.900,1.635,1.156,0.483,0.848,0.804,��쓌,8.1,��
2018/06/07,17:00,0.882,1.305,0.901,1.632,1.160,0.483,0.847,0.803,��쓌,7.9,��
2018/06/07,17:10,0.883,1.304,0.899,1.634,1.157,0.483,0.847,0.803,��쓌,7.9,��
2018/06/07,17:20,0.883,1.303,0.899,1.632,1.160,0.483,0.846,0.804,��쓌,7.1,��
2018/06/07,17:30,0.883,1.302,0.897,1.635,1.157,0.483,0.847,0.803,��,7.6,��
2018/06/07,17:40,0.884,1.303,0.898,1.633,1.159,0.485,0.844,0.805,��,7.2,��
2018/06/07,17:50,0.883,1.304,0.899,1.634,1.158,0.481,0.849,0.807,��,6.2,��
2018/06/07,18:00,0.882,1.303,0.898,1.635,1.158,0.483,0.848,0.805,��,6.5,��
2018/06/07,18:10,0.882,1.305,0.898,1.633,1.159,0.484,0.846,0.807,��,5.9,��
2018/06/07,18:20,0.883,1.302,0.900,1.633,1.153,0.484,0.847,0.805,��,6.2,��
2018/06/07,18:30,0.881,1.303,0.899,1.634,1.155,0.486,0.848,0.806,��,7.0,��
2018/06/07,18:40,0.884,1.303,0.901,1.634,1.155,0.485,0.845,0.806,��,8.5,��
2018/06/07,18:50,0.882,1.304,0.900,1.634,1.157,0.485,0.848,0.806,��,8.3,��
2018/06/07,19:00,0.883,1.305,0.901,1.634,1.156,0.485,0.846,0.807,��,7.8,��
2018/06/07,19:10,0.884,1.304,0.902,1.631,1.160,0.483,0.847,0.805,��,8.1,��
2018/06/07,19:20,0.883,1.304,0.901,1.632,1.155,0.484,0.848,0.805,��,7.5,��
2018/06/07,19:30,0.882,1.303,0.901,1.632,1.156,0.484,0.848,0.804,��,7.9,��
2018/06/07,19:40,0.884,1.304,0.901,1.633,1.157,0.486,0.850,0.806,��,8.3,��
2018/06/07,19:50,0.884,1.305,0.901,1.636,1.158,0.485,0.849,0.804,��,7.7,��
2018/06/07,20:00,0.884,1.304,0.902,1.636,1.156,0.485,0.847,0.807,��,7.6,��
2018/06/07,20:10,0.884,1.306,0.903,1.636,1.159,0.486,0.848,0.807,��,7.8,��
2018/06/07,20:20,0.884,1.306,0.901,1.637,1.159,0.486,0.847,0.804,��,7.4,��
2018/06/07,20:30,0.885,1.303,0.901,1.637,1.155,0.484,0.849,0.806,��,7.5,��
2018/06/07,20:40,0.884,1.303,0.903,1.637,1.156,0.483,0.849,0.805,��,6.6,��
2018/06/07,20:50,0.883,1.304,0.905,1.636,1.155,0.484,0.848,0.806,��,5.3,��
2018/06/07,21:00,0.884,1.301,0.903,1.636,1.156,0.484,0.847,0.806,��,4.3,��
2018/06/07,21:10,0.883,1.301,0.901,1.637,1.159,0.485,0.848,0.805,��,4.3,��
2018/06/07,21:20,0.883,1.303,0.902,1.637,1.157,0.484,0.849,0.806,��,4.5,��
2018/06/07,21:30,0.886,1.304,0.900,1.638,1.156,0.484,0.847,0.804,��,5.2,��
2018/06/07,21:40,0.884,1.304,0.902,1.636,1.157,0.483,0.848,0.804,��,4.5,��
2018/06/07,21:50,0.883,1.303,0.903,1.636,1.156,0.484,0.847,0.807,��,5.3,��
2018/06/07,22:00,0.884,1.305,0.900,1.636,1.157,0.485,0.849,0.805,��쐼,5.8,��
2018/06/07,22:10,0.884,1.300,0.902,1.637,1.157,0.483,0.848,0.805,��쐼,5.6,��
2018/06/07,22:20,0.884,1.305,0.900,1.637,1.156,0.485,0.848,0.806,��쐼,5.2,��
2018/06/07,22:30,0.885,1.302,0.903,1.637,1.158,0.484,0.847,0.806,��쐼,4.8,��
2018/06/07,22:40,0.885,1.302,0.901,1.638,1.157,0.485,0.847,0.805,��,4.4,��
2018/06/07,22:50,0.884,1.301,0.901,1.634,1.157,0.484,0.849,0.806,��,4.8,��
2018/06/07,23:00,0.886,1.300,0.902,1.636,1.157,0.485,0.849,0.805,��,4.6,��
2018/06/07,23:10,0.884,1.302,0.901,1.635,1.156,0.484,0.848,0.804,��쐼,4.6,��
2018/06/07,23:20,0.884,1.301,0.901,1.637,1.156,0.484,0.849,0.807,��쐼,4.4,��
2018/06/07,23:30,0.884,1.301,0.902,1.636,1.156,0.484,0.846,0.804,��쐼,4.4,��
2018/06/07,23:40,0.886,1.301,0.901,1.638,1.155,0.485,0.849,0.805,�쐼,4.3,��
2018/06/07,23:50,0.885,1.303,0.901,1.638,1.156,0.485,0.849,0.806,��쐼,4.2,��
